User: anonymous   Login
Location: Home
(42.5358°N, 72.7383°W)
Time: 02:48:20
(UTC-04:00)
Language:

First-Move - Orbit

View from above orbital plane
View from above orbital plane
View from above satellite
View from above satellite

Ground track
Ground track

The orbit data is extracted from the following two-line orbital elements,

1 39439U 13066Z   22270.45743240  .00005233  00000-0  60041-3 0  9993
2 39439  97.6483 240.0890 0063861  65.1560 295.6278 14.84797530477181
Epoch (UTC): 27 September 2022 10:58:42
Eccentricity: 0.0063861
inclination: 97.6483°
perigee height: 569 km
apogee height: 659 km
right ascension of ascending node: 240.0890°
argument of perigee: 65.1560°
revolutions per day: 14.84797530
mean anomaly at epoch: 295.6278°
orbit number at epoch: 47718

The dashed part of the orbit path shows where the satellite is in the earth's shadow,  

DLR